Regional Weather Roundup
Issued by NWS

Home | Current Version | Previous Version | Graphics & Text | Print | Product List | Glossary On
Versions: 1 2 3 4 5 6 7 8 9 10 11 12 13 14 15 16 17 18 19 20 21 22 23 24 25 26 27 28 29 30 31 32 33 34 35 36 37 38 39 40 41 42 43 44 45 46 47 48 49 50
000
ASUS45 KBOU 241007
RWRCO

WEATHER ROUNDUP FOR COLORADO
NATIONAL WEATHER SERVICE DENVER/BOULDER CO
400 AM MDT THU JUL 24 2014

NOTE: "FAIR" INDICATES FEW OR NO CLOUDS BELOW 12000 FEET WITH NO
SIGNIFICANT WEATHER AND/OR OBSTRUCTIONS TO VISIBILITY.

COZ001>005-013-030-031-241100-
...NORTHWEST COLORADO...

CITY           SKY/WX    TMP DP  RH WIND       PRES   REMARKS
CRAIG          LGT RAIN  59  49  69 CALM      30.27R
HAYDEN         PTCLDY    64  41  42 S5        30.29R
MEEKER         MOCLDY    65  44  46 SE5       30.28F
MOUNT WERNER   NOT AVBL
STEAMBOAT SPGS PTCLDY    61  44  54 CALM      30.31S
WALDEN         MOCLDY    52  39  62 SE7       30.41S
$$

COZ006>008-011-241100-
...WEST CENTRAL VALLEYS...

CITY           SKY/WX    TMP DP  RH WIND       PRES   REMARKS
GRAND JUNCTION MOCLDY    84  47  27 S16G28    30.13R
MONTROSE       PTCLDY    72  51  47 E10       30.28S
EAGLE          MOCLDY    64  46  52 CALM      30.36R
RIFLE          MOCLDY    68  45  43 CALM      30.23R
DELTA          PTCLDY    79  50  35 NE12      30.23S THUNDER
NUCLA          NOT AVBL
$$

COZ017>023-064>068-241100-
...SOUTHWEST COLORADO...

CITY           SKY/WX    TMP DP  RH WIND       PRES   REMARKS
DURANGO        MOCLDY    64  51  62 VRB3      30.40F
CORTEZ         CLEAR     75  50  41 VRB7G18   30.29F
PAGOSA SPRINGS MOCLDY    61  53  75 N3        30.49S
TELLURIDE      MOCLDY    63  43  48 SE12      30.57S
WOLF CREEK PAS NOT AVBL
$$

COZ009-010-012-014-032>034-037-058>063-241100-
...CENTRAL COLORADO...

CITY           SKY/WX    TMP DP  RH WIND       PRES   REMARKS
ASPEN          CLOUDY    68  43  40 S9        30.41F
BUENA VISTA    CLOUDY    58  45  62 NW7       30.46F
COPPER MTN     CLOUDY    55  37  50 S20G29    30.76R
BERTHOUD PASS  FAIR      46  32  57 SW12      30.79F
COTTONWOOD PAS CLOUDY    63  41  45 W9        30.60F
GUNNISON       CLOUDY    63  45  51 N9        30.48R
KREMMLING      PTCLDY    54  41  62 E5        30.41S
LEADVILLE      CLOUDY    49  44  83 NE5       30.59F
MONARCH PASS   MOCLDY    50  41  71 W20       30.86F
SALIDA         CLOUDY   N/A N/A N/A NW13      30.49S
SUNLIGHT       MOCLDY    55  43  62 CALM      30.65F THUNDER
WILKERSON PASS MOCLDY    52  41  66 SW14G20   30.69F
$$

COZ069>075-241100-
...SAN LUIS VALLEY/SANGRE DE CRISTO MOUNTAINS...

CITY           SKY/WX    TMP DP  RH WIND       PRES   REMARKS
ALAMOSA        PTCLDY    56  49  77 E6        30.45S
LA VETA PASS   PTCLDY    54  46  76 SW14G22   30.61F
SAGUACHE       MOCLDY    55  45  67 N3        30.49S
$$

COZ035-036-038>040-241100-
...NORTHERN COLORADO FRONT RANGE...

CITY           SKY/WX    TMP DP  RH WIND       PRES   REMARKS
DENVER INTL AP PTCLDY    75  47  36 S16       30.14F
DMNS CITY PARK   N/A     71  47  42 W2        30.13S
AURORA         MOCLDY    71  49  45 S13       30.18F
FRONT RANGE AP NOT AVBL
ERIE MUNI ARPT PTCLDY    60  51  74 CALM      30.13F
BOULDER MUN AP PTCLDY    64  48  55 S6        30.14S
CENTENNIAL     MOCLDY    72  47  40 S9        30.19F
BROOMFIELD     PTCLDY    70  48  46 CALM      30.17S
FORT COLLINS   PTCLDY    64  52  63 NE6       30.12F
LONGMONT       PTCLDY    64  50  59 CALM      30.13F
$$

COZ041-046-047-076>085-087-088-241100-
...PIKES PEAK/PALMER DIVIDE AND SOUTHERN FOOTHILLS...

CITY           SKY/WX    TMP DP  RH WIND       PRES   REMARKS
COLO. SPRINGS  PTCLDY    66  57  72 N3        30.27F
A. F. ACADEMY  PTCLDY    58  48  70 N7        30.29F
ELLICOTT       PTCLDY    61  53  75 S3        30.25F
FALCON         PTCLDY    62  55  78 W3        30.32F
FORT CARSON    MOCLDY    64  51  63 N1        30.24S
LIMON          PTCLDY    59  57  93 S3        30.20F
MONUMENT HILL  MOCLDY    64  46  52 SW10      30.30F
TRINIDAD       CLEAR     69  50  50 SW12      30.26F
$$

COZ042>045-048>051-090-091-241100-
...NORTHEAST COLORADO...

CITY           SKY/WX    TMP DP  RH WIND       PRES   REMARKS
GREELEY ARPT   PTCLDY    57  50  77 NW7       30.10S
AKRON          PTCLDY    69  62  78 S12G24    30.11F
BURLINGTON     PTCLDY    69  66  90 S13       30.13F
WRAY             N/A     71  67  88 NE6       30.09F
STERLING       PTCLDY    70  68  94 S9        30.06F
HOLYOKE        CLEAR     66  63  88 S6        30.08F
FORT MORGAN    PTCLDY    67  62  82 SE7       30.10S
$$

COZ086-089-092>099-241100-
...SOUTHEAST COLORADO...

CITY           SKY/WX    TMP DP  RH WIND       PRES   REMARKS
PUEBLO         PTCLDY    67  54  63 NW6       30.15F
LA JUNTA       CLEAR     73  49  42 SW14      30.13F
LAMAR          CLEAR     68  56  65 CALM      30.10F
SPRINGFIELD      N/A     69  55  60 SW8       30.19F
$$


USA.gov is the U.S. government's official web portal to all federal, state and local government web resources and services.